Time,TemperatureF,DewpointF,PressureIn,WindDirection,WindDirectionDegrees,WindSpeedMPH,WindSpeedGustMPH,Humidity,HourlyPrecipIn,Conditions,Clouds,dailyrainin,SoftwareType,DateUTC
2013-11-15 00:03:00,28.1,23.3,30.25,SE,133,0.0,0.0,82,0.00,,,0.00,Wunderground v.1.15,2013-11-15 05:03:00,
2013-11-15 00:06:00,27.9,23.1,30.25,SE,133,0.0,0.0,82,0.00,,,0.00,Wunderground v.1.15,2013-11-15 05:06:00,
2013-11-15 00:08:00,27.9,23.1,30.25,SE,133,0.0,0.0,82,0.00,,,0.00,Wunderground v.1.15,2013-11-15 05:08:00,
2013-11-15 00:14:00,27.7,23.5,30.25,SE,133,0.0,0.0,84,0.00,,,0.00,Wunderground v.1.15,2013-11-15 05:14:00,
2013-11-15 00:18:00,27.8,23.3,30.25,SE,133,0.0,0.0,83,0.00,,,0.00,Wunderground v.1.15,2013-11-15 05:18:00,
2013-11-15 00:24:00,28.0,23.5,30.25,SE,133,0.0,0.0,83,0.00,,,0.00,Wunderground v.1.15,2013-11-15 05:24:00,
2013-11-15 00:32:00,28.0,23.5,30.25,SE,133,0.0,0.0,83,0.00,,,0.00,Wunderground v.1.15,2013-11-15 05:32:00,
2013-11-15 00:38:00,28.0,23.2,30.25,SE,133,0.0,0.0,82,0.00,,,0.00,Wunderground v.1.15,2013-11-15 05:38:00,
2013-11-15 00:44:00,28.0,23.8,30.25,SE,133,0.0,0.0,84,0.00,,,0.00,Wunderground v.1.15,2013-11-15 05:44:00,
2013-11-15 00:51:00,28.1,23.6,30.25,SE,133,0.0,0.0,83,0.00,,,0.00,Wunderground v.1.15,2013-11-15 05:51:00,
2013-11-15 00:56:00,28.0,23.5,30.25,SE,133,0.0,0.0,83,0.00,,,0.00,Wunderground v.1.15,2013-11-15 05:56:00,
2013-11-15 01:02:00,28.1,23.9,30.25,SE,133,0.0,0.0,84,0.00,,,0.00,Wunderground v.1.15,2013-11-15 06:02:00,
2013-11-15 01:08:00,28.3,24.1,30.25,SE,133,0.0,0.0,84,0.00,,,0.00,Wunderground v.1.15,2013-11-15 06:08:00,
2013-11-15 01:14:00,28.3,23.8,30.25,SE,133,0.0,0.0,83,0.00,,,0.00,Wunderground v.1.15,2013-11-15 06:14:00,
2013-11-15 01:21:00,28.3,24.1,30.24,SE,133,0.0,0.0,84,0.00,,,0.00,Wunderground v.1.15,2013-11-15 06:21:00,
2013-11-15 01:26:00,28.5,24.3,30.24,SE,133,0.0,0.0,84,0.00,,,0.00,Wunderground v.1.15,2013-11-15 06:26:00,
2013-11-15 01:32:00,28.5,24.6,30.25,SE,133,0.0,0.0,85,0.00,,,0.00,Wunderground v.1.15,2013-11-15 06:32:00,
2013-11-15 01:38:00,28.3,24.1,30.24,SE,133,0.0,0.0,84,0.00,,,0.00,Wunderground v.1.15,2013-11-15 06:38:00,
2013-11-15 01:44:00,28.5,24.6,30.25,SE,133,0.0,0.0,85,0.00,,,0.00,Wunderground v.1.15,2013-11-15 06:44:00,
2013-11-15 01:52:00,28.1,24.5,30.24,SE,133,0.0,0.0,86,0.00,,,0.00,Wunderground v.1.15,2013-11-15 06:52:00,
2013-11-15 01:58:00,28.0,23.8,30.24,SE,133,0.0,0.0,84,0.00,,,0.00,Wunderground v.1.15,2013-11-15 06:58:00,
2013-11-15 02:04:00,27.8,23.9,30.25,SE,133,0.0,0.0,85,0.00,,,0.00,Wunderground v.1.15,2013-11-15 07:04:00,
2013-11-15 02:12:00,27.8,23.9,30.25,SE,133,0.0,0.0,85,0.00,,,0.00,Wunderground v.1.15,2013-11-15 07:12:00,
2013-11-15 02:18:00,27.8,24.2,30.25,SE,133,0.0,0.0,86,0.00,,,0.00,Wunderground v.1.15,2013-11-15 07:18:00,
2013-11-15 02:24:00,27.9,24.3,30.25,SE,133,0.0,0.0,86,0.00,,,0.00,Wunderground v.1.15,2013-11-15 07:24:00,
2013-11-15 02:31:00,27.8,24.2,30.25,SE,133,0.0,0.0,86,0.00,,,0.00,Wunderground v.1.15,2013-11-15 07:31:00,
2013-11-15 02:36:00,27.8,24.2,30.26,SE,133,0.0,0.0,86,0.00,,,0.00,Wunderground v.1.15,2013-11-15 07:36:00,
2013-11-15 02:42:00,27.9,24.0,30.26,SE,133,0.0,0.0,85,0.00,,,0.00,Wunderground v.1.15,2013-11-15 07:42:00,
2013-11-15 02:48:00,27.8,24.2,30.26,SE,133,0.0,0.0,86,0.00,,,0.00,Wunderground v.1.15,2013-11-15 07:48:00,
2013-11-15 02:54:00,27.8,24.4,30.26,SE,133,0.0,0.0,87,0.00,,,0.00,Wunderground v.1.15,2013-11-15 07:54:00,
2013-11-15 03:02:00,27.8,24.4,30.26,SE,133,0.0,0.0,87,0.00,,,0.00,Wunderground v.1.15,2013-11-15 08:02:00,
2013-11-15 03:08:00,27.7,24.1,30.25,SE,133,0.0,0.0,86,0.00,,,0.00,Wunderground v.1.15,2013-11-15 08:08:00,
2013-11-15 03:14:00,27.6,24.2,30.25,SE,133,0.0,0.0,87,0.00,,,0.00,Wunderground v.1.15,2013-11-15 08:14:00,
2013-11-15 03:22:00,27.8,24.4,30.25,SE,133,0.0,0.0,87,0.00,,,0.00,Wunderground v.1.15,2013-11-15 08:22:00,
2013-11-15 03:28:00,27.7,24.3,30.25,SE,133,0.0,0.0,87,0.00,,,0.00,Wunderground v.1.15,2013-11-15 08:28:00,
2013-11-15 03:34:00,27.6,24.2,30.25,SE,133,0.0,0.0,87,0.00,,,0.00,Wunderground v.1.15,2013-11-15 08:34:00,
2013-11-15 03:42:00,27.7,24.3,30.25,SE,133,0.0,0.0,87,0.00,,,0.00,Wunderground v.1.15,2013-11-15 08:42:00,
2013-11-15 03:48:00,27.7,24.3,30.25,SE,133,0.0,0.0,87,0.00,,,0.00,Wunderground v.1.15,2013-11-15 08:48:00,
2013-11-15 03:55:00,28.0,24.4,30.25,SE,133,0.0,0.0,86,0.00,,,0.00,Wunderground v.1.15,2013-11-15 08:55:00,
2013-11-15 04:02:00,27.9,24.3,30.25,SE,133,0.0,0.0,86,0.00,,,0.00,Wunderground v.1.15,2013-11-15 09:02:00,
2013-11-15 04:08:00,27.7,24.3,30.25,SE,133,0.0,0.0,87,0.00,,,0.00,Wunderground v.1.15,2013-11-15 09:08:00,
2013-11-15 04:14:00,27.7,24.1,30.25,SE,133,0.0,0.0,86,0.00,,,0.00,Wunderground v.1.15,2013-11-15 09:14:00,
2013-11-15 04:22:00,27.5,24.1,30.25,SE,133,0.0,0.0,87,0.00,,,0.00,Wunderground v.1.15,2013-11-15 09:22:00,
2013-11-15 04:28:00,27.6,24.2,30.25,SE,133,0.0,0.0,87,0.00,,,0.00,Wunderground v.1.15,2013-11-15 09:28:00,
2013-11-15 04:34:00,27.3,23.9,30.25,SE,133,0.0,0.0,87,0.00,,,0.00,Wunderground v.1.15,2013-11-15 09:34:00,
2013-11-15 04:42:00,27.1,23.7,30.25,SE,133,0.0,0.0,87,0.00,,,0.00,Wunderground v.1.15,2013-11-15 09:42:00,
2013-11-15 04:48:00,27.0,23.6,30.26,SE,133,0.0,0.0,87,0.00,,,0.00,Wunderground v.1.15,2013-11-15 09:48:00,
2013-11-15 04:54:00,27.2,23.6,30.26,SE,133,0.0,0.0,86,0.00,,,0.00,Wunderground v.1.15,2013-11-15 09:54:00,
2013-11-15 05:02:00,27.2,23.8,30.26,SE,133,0.0,0.0,87,0.00,,,0.00,Wunderground v.1.15,2013-11-15 10:02:00,
2013-11-15 05:08:00,27.1,23.7,30.26,SE,133,0.0,0.0,87,0.00,,,0.00,Wunderground v.1.15,2013-11-15 10:08:00,
2013-11-15 05:14:00,27.2,23.8,30.26,SE,133,0.0,0.0,87,0.00,,,0.00,Wunderground v.1.15,2013-11-15 10:14:00,
2013-11-15 05:21:00,27.0,23.6,30.26,SE,133,0.0,0.0,87,0.00,,,0.00,Wunderground v.1.15,2013-11-15 10:21:00,
2013-11-15 05:28:00,27.3,23.9,30.26,SE,133,0.0,0.0,87,0.00,,,0.00,Wunderground v.1.15,2013-11-15 10:28:00,
2013-11-15 05:34:00,27.2,23.8,30.26,SE,133,0.0,0.0,87,0.00,,,0.00,Wunderground v.1.15,2013-11-15 10:34:00,
2013-11-15 05:42:00,27.0,23.6,30.27,SE,133,0.0,0.0,87,0.00,,,0.00,Wunderground v.1.15,2013-11-15 10:42:00,
2013-11-15 05:48:00,26.8,23.4,30.27,SE,133,0.0,0.0,87,0.00,,,0.00,Wunderground v.1.15,2013-11-15 10:48:00,
2013-11-15 05:54:00,26.7,23.4,30.26,SE,133,0.0,0.0,87,0.00,,,0.00,Wunderground v.1.15,2013-11-15 10:54:00,
2013-11-15 06:02:00,26.7,23.4,30.27,SE,133,0.0,0.0,87,0.00,,,0.00,Wunderground v.1.15,2013-11-15 11:02:00,
2013-11-15 06:08:00,26.6,23.3,30.27,SE,133,0.0,0.0,87,0.00,,,0.00,Wunderground v.1.15,2013-11-15 11:08:00,
2013-11-15 06:14:00,26.7,23.4,30.27,SE,133,0.0,0.0,87,0.00,,,0.00,Wunderground v.1.15,2013-11-15 11:14:00,
2013-11-15 06:22:00,26.6,23.3,30.27,SE,133,0.0,0.0,87,0.00,,,0.00,Wunderground v.1.15,2013-11-15 11:22:00,
2013-11-15 06:28:00,26.5,23.4,30.27,SE,133,0.0,0.0,88,0.00,,,0.00,Wunderground v.1.15,2013-11-15 11:28:00,
2013-11-15 06:34:00,26.4,23.3,30.27,SE,133,0.0,0.0,88,0.00,,,0.00,Wunderground v.1.15,2013-11-15 11:34:00,
2013-11-15 06:42:00,26.4,23.3,30.27,SE,133,0.0,0.0,88,0.00,,,0.00,Wunderground v.1.15,2013-11-15 11:42:00,
2013-11-15 06:48:00,26.5,23.4,30.27,SE,133,0.0,0.0,88,0.00,,,0.00,Wunderground v.1.15,2013-11-15 11:48:00,
2013-11-15 06:54:00,26.6,23.5,30.27,SE,133,0.0,0.0,88,0.00,,,0.00,Wunderground v.1.15,2013-11-15 11:54:00,
2013-11-15 07:02:00,26.7,23.6,30.27,SE,133,0.0,0.0,88,0.00,,,0.00,Wunderground v.1.15,2013-11-15 12:02:00,
2013-11-15 07:08:00,26.8,23.7,30.27,SE,133,0.0,0.0,88,0.00,,,0.00,Wunderground v.1.15,2013-11-15 12:08:00,
2013-11-15 07:14:00,26.9,23.8,30.28,SE,133,0.0,0.0,88,0.00,,,0.00,Wunderground v.1.15,2013-11-15 12:14:00,
2013-11-15 07:22:00,27.0,23.9,30.28,SE,133,0.0,0.0,88,0.00,,,0.00,Wunderground v.1.15,2013-11-15 12:22:00,
2013-11-15 07:28:00,27.1,24.0,30.28,SE,133,0.0,0.0,88,0.00,,,0.00,Wunderground v.1.15,2013-11-15 12:28:00,
2013-11-15 07:34:00,27.2,24.1,30.28,SE,133,0.0,0.0,88,0.00,,,0.00,Wunderground v.1.15,2013-11-15 12:34:00,
2013-11-15 07:41:00,27.5,24.4,30.28,SE,133,0.0,0.0,88,0.00,,,0.00,Wunderground v.1.15,2013-11-15 12:41:00,
2013-11-15 07:46:00,27.8,24.7,30.28,SE,133,0.0,0.0,88,0.00,,,0.00,Wunderground v.1.15,2013-11-15 12:46:00,
2013-11-15 07:52:00,28.2,25.1,30.28,SE,133,0.0,0.0,88,0.00,,,0.00,Wunderground v.1.15,2013-11-15 12:52:00,
2013-11-15 07:58:00,28.6,25.2,30.28,SE,133,0.0,0.0,87,0.00,,,0.00,Wunderground v.1.15,2013-11-15 12:58:00,
2013-11-15 08:04:00,28.8,25.4,30.28,SE,133,0.0,0.0,87,0.00,,,0.00,Wunderground v.1.15,2013-11-15 13:04:00,
2013-11-15 08:12:00,29.4,25.7,30.29,SE,133,0.0,0.0,86,0.00,,,0.00,Wunderground v.1.15,2013-11-15 13:12:00,
2013-11-15 08:18:00,29.7,26.3,30.29,SE,133,0.0,0.0,87,0.00,,,0.00,Wunderground v.1.15,2013-11-15 13:18:00,
2013-11-15 08:24:00,30.2,26.8,30.29,SE,133,0.0,0.0,87,0.00,,,0.00,Wunderground v.1.15,2013-11-15 13:24:00,
2013-11-15 08:32:00,30.9,27.2,30.29,SE,133,0.0,0.0,86,0.00,,,0.00,Wunderground v.1.15,2013-11-15 13:32:00,
2013-11-15 08:38:00,31.4,27.7,30.29,SE,133,0.0,0.0,86,0.00,,,0.00,Wunderground v.1.15,2013-11-15 13:38:00,
2013-11-15 08:44:00,32.1,27.5,30.28,SE,133,0.0,0.0,83,0.00,,,0.00,Wunderground v.1.15,2013-11-15 13:44:00,
2013-11-15 08:51:00,33.4,28.8,30.29,SE,133,0.0,0.0,83,0.00,,,0.00,Wunderground v.1.15,2013-11-15 13:51:00,
2013-11-15 08:56:00,34.5,29.0,30.28,SE,133,0.0,0.0,80,0.00,,,0.00,Wunderground v.1.15,2013-11-15 13:56:00,
2013-11-15 09:02:00,35.3,29.1,30.28,SE,133,0.0,1.0,78,0.00,,,0.00,Wunderground v.1.15,2013-11-15 14:02:00,
2013-11-15 09:11:00,38.7,27.9,30.28,SSE,155,1.0,1.0,65,0.00,,,0.00,Wunderground v.1.15,2013-11-15 14:11:00,
2013-11-15 09:18:00,40.6,27.4,30.28,SSE,149,1.0,2.0,59,0.00,,,0.00,Wunderground v.1.15,2013-11-15 14:18:00,
2013-11-15 09:24:00,42.6,23.8,30.28,SE,130,2.0,2.0,47,0.00,,,0.00,Wunderground v.1.15,2013-11-15 14:24:00,
2013-11-15 09:31:00,44.1,25.1,30.28,SSE,167,3.0,3.0,47,0.00,,,0.00,Wunderground v.1.15,2013-11-15 14:31:00,
2013-11-15 09:36:00,45.1,25.0,30.27,SE,137,2.0,8.0,45,0.00,,,0.00,Wunderground v.1.15,2013-11-15 14:36:00,
2013-11-15 09:42:00,45.8,23.4,30.27,South,176,3.0,3.0,41,0.00,,,0.00,Wunderground v.1.15,2013-11-15 14:42:00,
2013-11-15 09:48:00,46.4,22.1,30.27,South,170,4.0,4.0,38,0.00,,,0.00,Wunderground v.1.15,2013-11-15 14:48:00,
2013-11-15 09:54:00,46.4,22.1,30.27,SSW,194,4.0,6.0,38,0.00,,,0.00,Wunderground v.1.15,2013-11-15 14:54:00,
2013-11-15 10:02:00,46.9,23.2,30.27,SE,132,3.0,3.0,39,0.00,,,0.00,Wunderground v.1.15,2013-11-15 15:02:00,
2013-11-15 10:08:00,47.0,22.0,30.27,SE,136,3.0,3.0,37,0.00,,,0.00,Wunderground v.1.15,2013-11-15 15:08:00,
2013-11-15 10:15:00,47.3,21.7,30.27,SSE,150,3.0,7.0,36,0.00,,,0.00,Wunderground v.1.15,2013-11-15 15:15:00,
2013-11-15 10:21:00,47.6,23.2,30.27,SE,137,3.0,3.0,38,0.00,,,0.00,Wunderground v.1.15,2013-11-15 15:21:00,
2013-11-15 10:26:00,48.1,22.4,30.27,SE,142,3.0,3.0,36,0.00,,,0.00,Wunderground v.1.15,2013-11-15 15:26:00,
2013-11-15 10:32:00,48.4,22.0,30.27,SSE,153,3.0,8.0,35,0.00,,,0.00,Wunderground v.1.15,2013-11-15 15:32:00,
2013-11-15 10:38:00,48.5,22.1,30.26,SSE,150,4.0,4.0,35,0.00,,,0.00,Wunderground v.1.15,2013-11-15 15:38:00,
2013-11-15 10:44:00,48.8,23.6,30.26,SE,132,2.0,2.0,37,0.00,,,0.00,Wunderground v.1.15,2013-11-15 15:44:00,
2013-11-15 10:51:00,49.2,21.3,30.26,South,177,2.0,7.0,33,0.00,,,0.00,Wunderground v.1.15,2013-11-15 15:51:00,
2013-11-15 10:56:00,49.2,21.3,30.26,SSE,165,3.0,7.0,33,0.00,,,0.00,Wunderground v.1.15,2013-11-15 15:56:00,
2013-11-15 11:02:00,49.7,21.7,30.26,SW,227,3.0,3.0,33,0.00,,,0.00,Wunderground v.1.15,2013-11-15 16:02:00,
2013-11-15 11:08:00,50.5,21.7,30.26,SSW,205,1.0,5.0,32,0.00,,,0.00,Wunderground v.1.15,2013-11-15 16:08:00,
2013-11-15 11:14:00,51.3,23.8,30.26,WNW,302,1.0,1.0,34,0.00,,,0.00,Wunderground v.1.15,2013-11-15 16:14:00,
2013-11-15 11:21:00,51.6,21.1,30.26,SSW,211,3.0,3.0,30,0.00,,,0.00,Wunderground v.1.15,2013-11-15 16:21:00,
2013-11-15 11:26:00,52.0,21.5,30.26,South,180,3.0,4.0,30,0.00,,,0.00,Wunderground v.1.15,2013-11-15 16:26:00,
2013-11-15 11:32:00,52.4,25.5,30.26,SSE,157,3.0,3.0,35,0.00,,,0.00,Wunderground v.1.15,2013-11-15 16:32:00,
2013-11-15 11:38:00,53.0,21.6,30.26,South,171,2.0,3.0,29,0.00,,,0.00,Wunderground v.1.15,2013-11-15 16:38:00,
2013-11-15 11:44:00,53.3,23.4,30.25,SE,140,2.0,7.0,31,0.00,,,0.00,Wunderground v.1.15,2013-11-15 16:44:00,
2013-11-15 11:50:00,53.7,21.3,30.25,South,173,2.0,3.0,28,0.00,,,0.00,Wunderground v.1.15,2013-11-15 16:50:00,
2013-11-15 11:58:00,53.5,23.6,30.25,ESE,117,4.0,12.0,31,0.00,,,0.00,Wunderground v.1.15,2013-11-15 16:58:00,
2013-11-15 12:04:00,53.8,20.6,30.24,NW,314,3.0,4.0,27,0.00,,,0.00,Wunderground v.1.15,2013-11-15 17:04:00,
2013-11-15 12:11:00,54.0,20.7,30.24,ESE,107,3.0,8.0,27,0.00,,,0.00,Wunderground v.1.15,2013-11-15 17:11:00,
2013-11-15 12:16:00,53.8,19.7,30.24,WNW,298,4.0,12.0,26,0.00,,,0.00,Wunderground v.1.15,2013-11-15 17:16:00,
2013-11-15 12:22:00,54.1,20.8,30.23,SSE,148,4.0,4.0,27,0.00,,,0.00,Wunderground v.1.15,2013-11-15 17:22:00,
2013-11-15 12:28:00,54.4,20.2,30.23,ESE,121,3.0,4.0,26,0.00,,,0.00,Wunderground v.1.15,2013-11-15 17:28:00,
2013-11-15 12:34:00,54.6,20.4,30.23,SSW,199,2.0,11.0,26,0.00,,,0.00,Wunderground v.1.15,2013-11-15 17:34:00,
2013-11-15 12:42:00,54.7,20.4,30.22,SE,140,4.0,11.0,26,0.00,,,0.00,Wunderground v.1.15,2013-11-15 17:42:00,
2013-11-15 12:48:00,54.9,20.6,30.22,SSE,160,5.0,11.0,26,0.00,,,0.00,Wunderground v.1.15,2013-11-15 17:48:00,
2013-11-15 12:54:00,55.1,19.9,30.22,SSE,149,4.0,5.0,25,0.00,,,0.00,Wunderground v.1.15,2013-11-15 17:54:00,
2013-11-15 13:02:00,54.8,21.4,30.22,NNE,23,4.0,4.0,27,0.00,,,0.00,Wunderground v.1.15,2013-11-15 18:02:00,
2013-11-15 13:08:00,54.3,20.1,30.21,North,355,3.0,4.0,26,0.00,,,0.00,Wunderground v.1.15,2013-11-15 18:08:00,
2013-11-15 13:14:00,55.3,21.8,30.21,West,279,2.0,4.0,27,0.00,,,0.00,Wunderground v.1.15,2013-11-15 18:14:00,
2013-11-15 13:21:00,55.3,20.0,30.21,SSW,198,3.0,8.0,25,0.00,,,0.00,Wunderground v.1.15,2013-11-15 18:21:00,
2013-11-15 13:26:00,54.7,19.5,30.21,SSE,150,5.0,5.0,25,0.00,,,0.00,Wunderground v.1.15,2013-11-15 18:26:00,
2013-11-15 13:32:00,55.4,21.9,30.21,West,261,4.0,4.0,27,0.00,,,0.00,Wunderground v.1.15,2013-11-15 18:32:00,
2013-11-15 13:38:00,55.4,21.9,30.20,NW,317,3.0,18.0,27,0.00,,,0.00,Wunderground v.1.15,2013-11-15 18:38:00,
2013-11-15 13:44:00,55.0,22.4,30.20,SSE,160,3.0,18.0,28,0.00,,,0.00,Wunderground v.1.15,2013-11-15 18:44:00,
2013-11-15 13:52:00,55.0,22.4,30.20,SSE,163,2.0,18.0,28,0.00,,,0.00,Wunderground v.1.15,2013-11-15 18:52:00,
2013-11-15 13:58:00,55.5,21.1,30.19,East,90,2.0,18.0,26,0.00,,,0.00,Wunderground v.1.15,2013-11-15 18:58:00,
2013-11-15 14:05:00,55.0,21.6,30.19,SSE,150,6.0,9.0,27,0.00,,,0.00,Wunderground v.1.15,2013-11-15 19:05:00,
2013-11-15 14:11:00,55.4,21.0,30.19,SSW,196,8.0,9.0,26,0.00,,,0.00,Wunderground v.1.15,2013-11-15 19:11:00,
2013-11-15 14:16:00,55.7,23.1,30.19,South,188,5.0,7.0,28,0.00,,,0.00,Wunderground v.1.15,2013-11-15 19:16:00,
2013-11-15 14:22:00,55.3,22.7,30.19,SW,221,6.0,6.0,28,0.00,,,0.00,Wunderground v.1.15,2013-11-15 19:22:00,
2013-11-15 14:28:00,55.2,23.5,30.19,SSW,200,5.0,6.0,29,0.00,,,0.00,Wunderground v.1.15,2013-11-15 19:28:00,
2013-11-15 14:34:00,55.5,24.5,30.19,ENE,59,3.0,13.0,30,0.00,,,0.00,Wunderground v.1.15,2013-11-15 19:34:00,
2013-11-15 14:41:00,56.4,24.5,30.19,West,265,2.0,13.0,29,0.00,,,0.00,Wunderground v.1.15,2013-11-15 19:41:00,
2013-11-15 14:46:00,56.5,25.4,30.19,SSW,213,2.0,13.0,30,0.00,,,0.00,Wunderground v.1.15,2013-11-15 19:46:00,
2013-11-15 14:52:00,56.2,25.1,30.19,NNW,345,3.0,5.0,30,0.00,,,0.00,Wunderground v.1.15,2013-11-15 19:52:00,
2013-11-15 14:58:00,56.2,25.1,30.19,South,176,2.0,5.0,30,0.00,,,0.00,Wunderground v.1.15,2013-11-15 19:58:00,
2013-11-15 15:04:00,56.0,25.0,30.19,SSE,163,2.0,5.0,30,0.00,,,0.00,Wunderground v.1.15,2013-11-15 20:04:00,
2013-11-15 15:11:00,55.7,25.5,30.18,SSE,163,2.0,5.0,31,0.00,,,0.00,Wunderground v.1.15,2013-11-15 20:11:00,
2013-11-15 15:18:00,55.4,26.0,30.18,SE,141,2.0,4.0,32,0.00,,,0.00,Wunderground v.1.15,2013-11-15 20:18:00,
2013-11-15 15:24:00,55.2,26.6,30.18,NE,41,2.0,3.0,33,0.00,,,0.00,Wunderground v.1.15,2013-11-15 20:24:00,
2013-11-15 15:31:00,55.1,26.5,30.17,SSW,193,1.0,3.0,33,0.00,,,0.00,Wunderground v.1.15,2013-11-15 20:31:00,
2013-11-15 15:36:00,55.0,26.4,30.18,SSW,193,1.0,17.0,33,0.00,,,0.00,Wunderground v.1.15,2013-11-15 20:36:00,
2013-11-15 15:42:00,54.9,27.0,30.17,SE,146,0.0,17.0,34,0.00,,,0.00,Wunderground v.1.15,2013-11-15 20:42:00,
2013-11-15 15:48:00,54.7,28.2,30.18,SSE,150,1.0,17.0,36,0.00,,,0.00,Wunderground v.1.15,2013-11-15 20:48:00,
2013-11-15 15:54:00,54.7,28.2,30.18,SE,136,1.0,17.0,36,0.00,,,0.00,Wunderground v.1.15,2013-11-15 20:54:00,
2013-11-15 16:02:00,54.6,26.8,30.18,SE,145,1.0,2.0,34,0.00,,,0.00,Wunderground v.1.15,2013-11-15 21:02:00,
2013-11-15 16:08:00,54.6,27.5,30.18,SSE,167,1.0,2.0,35,0.00,,,0.00,Wunderground v.1.15,2013-11-15 21:08:00,
2013-11-15 16:14:00,54.3,27.2,30.18,SSE,160,1.0,4.0,35,0.00,,,0.00,Wunderground v.1.15,2013-11-15 21:14:00,
2013-11-15 16:22:00,54.0,27.6,30.18,SE,142,1.0,2.0,36,0.00,,,0.00,Wunderground v.1.15,2013-11-15 21:22:00,
2013-11-15 16:28:00,53.4,30.9,30.18,SE,143,0.0,2.0,42,0.00,,,0.00,Wunderground v.1.15,2013-11-15 21:28:00,
2013-11-15 16:34:00,52.4,29.4,30.18,SE,143,0.0,0.0,41,0.00,,,0.00,Wunderground v.1.15,2013-11-15 21:34:00,
2013-11-15 16:41:00,51.2,32.2,30.18,SE,143,0.0,0.0,48,0.00,,,0.00,Wunderground v.1.15,2013-11-15 21:41:00,
2013-11-15 16:48:00,50.2,33.2,30.17,SE,142,0.0,1.0,52,0.00,,,0.00,Wunderground v.1.15,2013-11-15 21:48:00,
2013-11-15 16:54:00,48.5,32.1,30.18,SE,143,0.0,0.0,53,0.00,,,0.00,Wunderground v.1.15,2013-11-15 21:54:00,
2013-11-15 17:02:00,47.0,33.0,30.17,SE,143,0.0,0.0,58,0.00,,,0.00,Wunderground v.1.15,2013-11-15 22:02:00,
2013-11-15 17:08:00,46.5,33.4,30.17,SE,143,0.0,0.0,60,0.00,,,0.00,Wunderground v.1.15,2013-11-15 22:08:00,
2013-11-15 17:15:00,45.8,33.5,30.17,SE,142,0.0,0.0,62,0.00,,,0.00,Wunderground v.1.15,2013-11-15 22:15:00,
2013-11-15 17:21:00,44.9,33.8,30.17,SE,143,0.0,0.0,65,0.00,,,0.00,Wunderground v.1.15,2013-11-15 22:21:00,
2013-11-15 17:26:00,44.4,33.4,30.17,SE,143,0.0,0.0,65,0.00,,,0.00,Wunderground v.1.15,2013-11-15 22:26:00,
2013-11-15 17:32:00,44.2,33.6,30.18,SE,142,0.0,5.0,66,0.00,,,0.00,Wunderground v.1.15,2013-11-15 22:32:00,
2013-11-15 17:38:00,43.8,33.6,30.18,SE,142,0.0,5.0,67,0.00,,,0.00,Wunderground v.1.15,2013-11-15 22:38:00,
2013-11-15 17:44:00,43.6,33.4,30.18,SE,143,0.0,5.0,67,0.00,,,0.00,Wunderground v.1.15,2013-11-15 22:44:00,
2013-11-15 17:51:00,43.3,33.4,30.18,SE,142,0.0,5.0,68,0.00,,,0.00,Wunderground v.1.15,2013-11-15 22:51:00,
2013-11-15 17:56:00,43.4,33.5,30.18,SE,143,0.0,5.0,68,0.00,,,0.00,Wunderground v.1.15,2013-11-15 22:56:00,
2013-11-15 18:02:00,43.5,34.0,30.18,SE,143,0.0,0.0,69,0.00,,,0.00,Wunderground v.1.15,2013-11-15 23:02:00,
2013-11-15 18:08:00,43.7,34.2,30.19,SE,143,0.0,0.0,69,0.00,,,0.00,Wunderground v.1.15,2013-11-15 23:08:00,
2013-11-15 18:14:00,44.0,34.1,30.19,SE,142,0.0,0.0,68,0.00,,,0.00,Wunderground v.1.15,2013-11-15 23:14:00,
2013-11-15 18:21:00,43.7,34.2,30.19,SE,142,0.0,0.0,69,0.00,,,0.00,Wunderground v.1.15,2013-11-15 23:21:00,
2013-11-15 18:26:00,43.6,33.4,30.19,SE,143,0.0,0.0,67,0.00,,,0.00,Wunderground v.1.15,2013-11-15 23:26:00,
2013-11-15 18:32:00,43.2,34.4,30.20,SE,142,0.0,0.0,71,0.00,,,0.00,Wunderground v.1.15,2013-11-15 23:32:00,
2013-11-15 18:38:00,42.8,34.4,30.20,SE,143,0.0,0.0,72,0.00,,,0.00,Wunderground v.1.15,2013-11-15 23:38:00,
2013-11-15 18:44:00,42.9,34.5,30.19,SE,143,0.0,0.0,72,0.00,,,0.00,Wunderground v.1.15,2013-11-15 23:44:00,
2013-11-15 18:51:00,43.1,35.0,30.19,SE,142,0.0,0.0,73,0.00,,,0.00,Wunderground v.1.15,2013-11-15 23:51:00,
2013-11-15 18:58:00,42.9,34.8,30.20,SE,142,0.0,0.0,73,0.00,,,0.00,Wunderground v.1.15,2013-11-15 23:58:00,
2013-11-15 19:04:00,43.6,34.5,30.20,SE,143,0.0,0.0,70,0.00,,,0.00,Wunderground v.1.15,2013-11-16 00:04:00,
2013-11-15 19:11:00,43.3,34.5,30.20,SE,142,0.0,0.0,71,0.00,,,0.00,Wunderground v.1.15,2013-11-16 00:11:00,
2013-11-15 19:18:00,43.4,34.6,30.20,SE,142,0.0,0.0,71,0.00,,,0.00,Wunderground v.1.15,2013-11-16 00:18:00,
2013-11-15 19:24:00,43.5,35.1,30.20,ESE,119,0.0,9.0,72,0.00,,,0.00,Wunderground v.1.15,2013-11-16 00:24:00,
2013-11-15 19:31:00,46.1,34.2,30.19,SE,146,2.0,2.0,63,0.00,,,0.00,Wunderground v.1.15,2013-11-16 00:31:00,
2013-11-15 19:36:00,48.1,34.9,30.18,SE,136,2.0,2.0,60,0.00,,,0.00,Wunderground v.1.15,2013-11-16 00:36:00,
2013-11-15 19:42:00,48.3,36.3,30.18,South,182,1.0,2.0,63,0.00,,,0.00,Wunderground v.1.15,2013-11-16 00:42:00,
2013-11-15 19:48:00,47.7,35.7,30.19,SE,136,1.0,1.0,63,0.00,,,0.00,Wunderground v.1.15,2013-11-16 00:48:00,
2013-11-15 19:54:00,47.2,36.4,30.19,SE,136,0.0,1.0,66,0.00,,,0.00,Wunderground v.1.15,2013-11-16 00:54:00,
2013-11-15 20:02:00,46.6,35.8,30.20,SSW,200,0.0,0.0,66,0.00,,,0.00,Wunderground v.1.15,2013-11-16 01:02:00,
2013-11-15 20:08:00,46.7,37.1,30.19,SSW,200,0.0,0.0,69,0.00,,,0.00,Wunderground v.1.15,2013-11-16 01:08:00,
2013-11-15 20:14:00,45.5,36.6,30.19,SSW,200,0.0,0.0,71,0.00,,,0.00,Wunderground v.1.15,2013-11-16 01:14:00,
2013-11-15 20:20:00,45.1,37.0,30.20,SSW,200,0.0,0.0,73,0.00,,,0.00,Wunderground v.1.15,2013-11-16 01:20:00,
2013-11-15 20:28:00,44.9,37.1,30.20,SSW,200,0.0,0.0,74,0.00,,,0.00,Wunderground v.1.15,2013-11-16 01:28:00,
2013-11-15 20:34:00,44.8,37.4,30.20,SSW,200,0.0,0.0,75,0.00,,,0.00,Wunderground v.1.15,2013-11-16 01:34:00,
2013-11-15 20:42:00,44.7,37.3,30.20,SSW,200,0.0,0.0,75,0.00,,,0.00,Wunderground v.1.15,2013-11-16 01:42:00,
2013-11-15 20:48:00,44.1,37.3,30.20,SSW,200,0.0,0.0,77,0.00,,,0.00,Wunderground v.1.15,2013-11-16 01:48:00,
2013-11-15 20:54:00,43.8,37.4,30.20,SSW,200,0.0,0.0,78,0.00,,,0.00,Wunderground v.1.15,2013-11-16 01:54:00,
2013-11-15 21:06:00,43.9,37.2,30.20,SSW,200,0.0,0.0,77,0.00,,,0.00,Wunderground v.1.15,2013-11-16 02:06:00,
2013-11-15 21:12:00,43.8,37.1,30.20,SSW,200,0.0,0.0,77,0.00,,,0.00,Wunderground v.1.15,2013-11-16 02:12:00,
2013-11-15 21:19:00,44.1,37.3,30.20,SSW,200,0.0,0.0,77,0.00,,,0.00,Wunderground v.1.15,2013-11-16 02:19:00,
2013-11-15 21:24:00,43.5,37.7,30.20,SSW,200,0.0,0.0,80,0.00,,,0.00,Wunderground v.1.15,2013-11-16 02:24:00,
2013-11-15 21:32:00,43.5,37.7,30.21,SSW,200,0.0,0.0,80,0.00,,,0.00,Wunderground v.1.15,2013-11-16 02:32:00,
2013-11-15 21:38:00,43.9,38.1,30.21,SSW,200,0.0,0.0,80,0.00,,,0.00,Wunderground v.1.15,2013-11-16 02:38:00,
2013-11-15 21:44:00,44.2,37.8,30.22,SSW,200,0.0,0.0,78,0.00,,,0.00,Wunderground v.1.15,2013-11-16 02:44:00,
2013-11-15 21:52:00,44.0,37.9,30.22,SSW,200,0.0,0.0,79,0.00,,,0.00,Wunderground v.1.15,2013-11-16 02:52:00,
2013-11-15 21:58:00,44.1,38.3,30.22,SSW,200,0.0,0.0,80,0.00,,,0.00,Wunderground v.1.15,2013-11-16 02:58:00,
2013-11-15 22:04:00,44.2,38.4,30.22,SSW,200,0.0,0.0,80,0.00,,,0.00,Wunderground v.1.15,2013-11-16 03:04:00,
2013-11-15 22:12:00,44.1,39.0,30.23,SSW,200,0.0,0.0,82,0.00,,,0.00,Wunderground v.1.15,2013-11-16 03:12:00,
2013-11-15 22:18:00,43.6,38.8,30.23,SSW,200,0.0,0.0,83,0.00,,,0.00,Wunderground v.1.15,2013-11-16 03:18:00,
2013-11-15 22:24:00,43.7,39.2,30.22,SSW,200,0.0,0.0,84,0.00,,,0.00,Wunderground v.1.15,2013-11-16 03:24:00,
2013-11-15 22:31:00,43.6,39.4,30.23,SSW,200,0.0,1.0,85,0.00,,,0.00,Wunderground v.1.15,2013-11-16 03:31:00,
2013-11-15 22:36:00,44.0,38.9,30.23,SSW,200,0.0,1.0,82,0.00,,,0.00,Wunderground v.1.15,2013-11-16 03:36:00,
2013-11-15 22:42:00,44.1,39.6,30.23,SSW,200,0.0,1.0,84,0.00,,,0.00,Wunderground v.1.15,2013-11-16 03:42:00,
2013-11-15 22:48:00,43.9,39.7,30.24,SSW,200,0.0,1.0,85,0.00,,,0.00,Wunderground v.1.15,2013-11-16 03:48:00,
2013-11-15 22:54:00,44.0,40.4,30.24,SSW,200,0.0,1.0,87,0.00,,,0.00,Wunderground v.1.15,2013-11-16 03:54:00,
2013-11-15 23:02:00,43.8,40.2,30.24,SSW,200,0.0,0.0,87,0.00,,,0.00,Wunderground v.1.15,2013-11-16 04:02:00,
2013-11-15 23:08:00,44.0,40.7,30.24,SSW,200,0.0,0.0,88,0.00,,,0.00,Wunderground v.1.15,2013-11-16 04:08:00,
2013-11-15 23:14:00,43.8,40.8,30.24,SSW,200,0.0,0.0,89,0.00,,,0.01,Wunderground v.1.15,2013-11-16 04:14:00,
2013-11-15 23:22:00,43.9,41.2,30.24,SSW,200,0.0,0.0,90,0.00,,,0.01,Wunderground v.1.15,2013-11-16 04:22:00,
2013-11-15 23:28:00,43.4,40.9,30.24,SSW,200,0.0,0.0,91,0.00,,,0.01,Wunderground v.1.15,2013-11-16 04:28:00,
2013-11-15 23:34:00,43.4,40.9,30.24,SSW,200,0.0,2.0,91,0.00,,,0.01,Wunderground v.1.15,2013-11-16 04:34:00,
2013-11-15 23:42:00,43.2,41.0,30.24,SSW,200,0.0,2.0,92,0.00,,,0.01,Wunderground v.1.15,2013-11-16 04:42:00,
2013-11-15 23:48:00,42.9,40.7,30.24,SSW,200,0.0,2.0,92,0.00,,,0.01,Wunderground v.1.15,2013-11-16 04:48:00,
2013-11-15 23:54:00,42.9,41.0,30.24,SSW,200,0.0,2.0,93,0.00,,,0.01,Wunderground v.1.15,2013-11-16 04:54:00,